Regional Weather Roundup
Issued by NWS

Home | Current Version | Previous Version | Text Only | Print | Product List | Glossary Off
Versions: 1 2 3 4 5 6 7 8 9 10 11 12 13 14 15 16 17 18 19 20 21 22 23 24 25 26 27 28 29 30 31 32 33 34 35 36 37 38 39 40 41 42 43 44 45 46 47 48 49 50

000
ASUS43 KMKX 290613
RWRWI

WISCONSIN REGIONAL WEATHER ROUNDUP
NATIONAL WEATHER SERVICE MILWAUKEE/SULLIVAN WI
100 AM CDT FRI MAY 29 2015

NOTE: "FAIR" INDICATES FEW OR NO CLOUDS BELOW 12,000 FEET WITH NO
SIGNIFICANT WEATHER AND/OR OBSTRUCTIONS TO VISIBILITY.

WIZ001-002-006>008-014>016-023>028-290700-
NORTHWEST WISCONSIN

CITY           SKY/WX    TMP DP  RH WIND       PRES   REMARKS
SUPERIOR ARPT  CLOUDY    41  40  97 CALM      29.94F
ASHLAND        MOCLDY    45  45 100 CALM      29.94F
6HR MIN TEMP:  45; 6HR MAX TEMP:  55;

HAYWARD        MOCLDY    68  54  60 S10       29.95F
6HR MIN TEMP:  68; 6HR MAX TEMP:  79;

SIREN          PTCLDY    67  54  61 S7        29.93F
CUMBERLAND     CLOUDY    63  54  72 S7        29.96F
RICE LAKE      CLOUDY    67  54  64 SE6       29.98F
CHETEK         CLOUDY    65  57  75 MISG      29.97F
LADYSMITH      MOCLDY    63  55  75 SE5       30.01F
EAU CLAIRE     NOT AVBL
MENOMONIE      CLOUDY    67  57  70 E6        29.97F
NEW RICHMOND   MOCLDY    65  55  69 SE5       29.95F
OSCEOLA        PTCLDY    65  55  70 SE6       29.96F
$$

WIZ003>005-009-010-017-018-290700-
NORTH CENTRAL WISCONSIN

CITY           SKY/WX    TMP DP  RH WIND       PRES   REMARKS
MANITOWISH WTR MOCLDY    63  55  74 S5        30.01F
ARBOR VITAE    MOCLDY    64  56  73 S6        30.03S
WOODRUFF       MOCLDY    64  56  73 S6        30.03S
RHINELANDER    MOCLDY    62  54  74 CALM      30.04F
6HR MIN TEMP:  61; 6HR MAX TEMP:  77;

EAGLE RIVER    CLOUDY    63  52  67 CALM      30.03F
LAND O LAKES   MOCLDY    64  54  69 CALM      30.04F
PHILLIPS       PTCLDY    64  55  71 S7        30.01S
TOMAHAWK       MOCLDY    57  54  90 CALM      30.04F
MEDFORD        CLOUDY    62  54  76 SE3       30.02F
MERRILL        CLOUDY    59  56  89 CALM      30.04F
$$

WIZ029-030-035-036-043>047-290700-
CENTRAL WISCONSIN

CITY           SKY/WX    TMP DP  RH WIND       PRES   REMARKS
WAUSAU         CLOUDY    64  55  72 SE7       30.02F
6HR MIN TEMP:  63; 6HR MAX TEMP:  77;

MOSINEE        CLOUDY    63  55  77 SE6       30.04F
MARSHFIELD     CLOUDY    66  54  65 SE5       30.01F
6HR MIN TEMP:  65; 6HR MAX TEMP:  77;

STEVENS POINT  CLOUDY    66  54  66 SE5       30.04S
WAUPACA        CLOUDY    67  54  61 SE5       30.05S
WAUTOMA        NOT AVBL
WISC RAPIDS    CLOUDY    67  54  63 S3        30.03F
6HR MIN TEMP:  66; 6HR MAX TEMP:  79;

CAMP DOUGLAS   NOT AVBL
$$

WIZ011>013-019>022-031-037>040-048>050-290700-
NORTHEAST WISCONSIN

CITY           SKY/WX    TMP DP  RH WIND       PRES   REMARKS
ANTIGO         CLOUDY    60  56  87 S8        30.06F
SHAWANO        CLOUDY    67  54  62 S3        30.05F
OCONTO         MOCLDY    64  56  74 CALM      30.06S
STURGEON BAY   MOCLDY    63  52  67 S13       30.09F
6HR MIN TEMP:  63; 6HR MAX TEMP:  70;

GREEN BAY      CLOUDY    66  55  67 S5        30.06S
6HR MIN TEMP:  66; 6HR MAX TEMP:  78;

MANITOWOC      NOT AVBL
APPLETON       CLOUDY    66  52  59 S12       30.06S
CLINTONVILLE   CLOUDY    64  54  68 S3        30.05S
OSHKOSH        CLOUDY    65  54  67 S7        30.04F
6HR MIN TEMP:  62; 6HR MAX TEMP:  77;

$$

WIZ032>034-041-042-053>061-290700-
SOUTHWEST WISCONSIN

CITY           SKY/WX    TMP DP  RH WIND       PRES   REMARKS
LA CROSSE      LGT RAIN  70  59  68 S3        29.97S
6HR MIN TEMP:  70; 6HR MAX TEMP:  81; 6HR PCP: TRACE;

SPARTA         CLOUDY    64  56  76 CALM      30.00F
VIROQUA        CLOUDY    67  53  59 S6        30.01F
BOSCOBEL       LGT RAIN  62  58  86 CALM      30.00F
6HR MIN TEMP:  60; 6HR MAX TEMP:  80; 6HR PCP: TRACE;

PRAIRIE DU CHI CLOUDY    67  55  65 CALM      29.99S
PLATTEVILLE    CLOUDY    67  55  64 SE7       30.02S
$$

WIZ056-057-062-063-064-067-068-290700-
SOUTH CENTRAL WISCONSIN

CITY           SKY/WX    TMP DP  RH WIND       PRES   REMARKS
REEDSBURG      CLOUDY    67  56  67 S3        30.02S
BARABOO/DELLS  CLOUDY    67  55  64 SE7       30.03S
LONE ROCK      NOT AVBL
MINERAL POINT  CLOUDY    68  50  52 SE5       30.03S
MADISON        CLOUDY    68  54  60 SE7       30.03S
6HR MIN TEMP:  68; 6HR MAX TEMP:  80;

MIDDLETON      CLOUDY    70  54  57 CALM      30.04S
WATERTOWN      CLOUDY   N/A N/A N/A SE6       30.05F
MONROE         CLOUDY    66  54  63 SE9       30.03F
JANESVILLE     MOCLDY    64  54  68 SE7       30.04F
$$

WIZ051-052-058>065-066-070>072-290700-
SOUTHEAST WISCONSIN

CITY           SKY/WX    TMP DP  RH WIND       PRES   REMARKS
MILWAUKEE      CLOUDY    61  53  75 SE3       30.07F
6HR MIN TEMP:  60; 6HR MAX TEMP:  72;

WAUKESHA       CLOUDY    63  52  67 E5        30.09S
MILWAUKEE/TIMM CLOUDY    64  52  63 SE3       30.08S
RACINE         CLOUDY    62  52  69 SE6       30.09S
6HR MIN TEMP:  60; 6HR MAX TEMP:  71;

BURLINGTON     MOCLDY    59  53  82 CALM      30.07S
KENOSHA        MOCLDY    61  53  75 SE6       30.07F
6HR MIN TEMP:  60; 6HR MAX TEMP:  73;

FOND DU LAC    CLOUDY    67  54  63 S10       30.05F
6HR MIN TEMP:  63; 6HR MAX TEMP:  79;

SHEBOYGAN      MOCLDY    59  53  80 S5        30.08S
6HR MIN TEMP:  57; 6HR MAX TEMP:  72;

WEST BEND      CLOUDY    63  52  67 SE3       30.08S
JUNEAU         CLOUDY    65  54  67 SE8       30.07S
$$

LSZ147-162-290700-
LAKE SUPERIOR

STATION/POSITION TIME  TEMP    WIND        PRES    WAVE
                       AIR SEA DIR/SP/G            HT/PER
                 (UTC) (F)     (DEG/KT/KT) (MB)    (FT/S)
W MID LAKE BUOY  0450   38 37  140/  4/  6   N/A     2/ 5
DEVILS ISLAND    0500   41        CALM       N/A
PORT WING        0400   40      50/  4/  7   N/A
SAXON HARBOR     0500   45        CALM       N/A
$$

LMZ867-665-643>646-290700-
LAKE MICHIGAN

STATION/POSITION TIME  TEMP    WIND        PRES    WAVE
                       AIR SEA DIR/SP/G            HT/PER
                 (UTC) (F)     (DEG/KT/KT) (MB)    (FT/S)
CHAMBERS ISLAND  0500   67     160/  6/ 13   N/A
N MID LAKE BUOY  0450   43 36  160/  4/  4   N/A     1/ 4
SISTER BAY       0548   58     170/ 11/ 13   N/A
ALGOMA LAKESHORE 0523             CALM       N/A
KEWAUNEE LAKESHO 0500   49      CALM  /  3   N/A
SHEBOYGAN LAKESH 0500   55     180/  9/ 10   N/A
PORT WASHINGTON  0540   55     190/  2/  3   N/A
ATWATER BUOY     0500   53     180/  6/  8   N/A
MILWAUKEE LAKESH 0500   57     180/  3/  4   N/A
S MID LAKE BUOY  0450   48 38  110/  8/ 10   N/A     0
KENOSHA   LAKESH 0500   59     200/  1/  6   N/A
$$

TC  - TEMPERATURE IN CELSIUS
VSB - VISIBILITY IN STATUTE MILES
WCI - WIND CHILL INDEX
HX  - HEAT INDEX




USA.gov is the U.S. government's official web portal to all federal, state and local government web resources and services.